Location: Barcelona
(41.3830°N, 2.1830°E)
Time: 15:58:27
(UTC+02:00)

ISS - Pass Details

Date: 06 March 2021
Orbit: 418 x 422 km, 51.6° (Epoch: 16 April)

Event Time Altitude Azimuth Distance (km) Brightness Sun altitude
Exits shadow 05:40:41 14° 343° (NNW) 1,285 -1.4 -19.0°
Maximum altitude 05:42:03 17° 12° (NNE) 1,148 -1.3 -18.7°
Drops below altitude 10° 05:44:21 10° 55° (NE) 1,499 0.0 -18.3°
Sets 05:46:59 0° 77° (ENE) 2,362 1.8 -17.8°
